Location: Riddle Hill
(39.7867°N, 89.7645°W)
Time: 21:25:29
(UTC+00:00)

CZ-4 R/B - Pass Details

Date: 29 October 2020
Orbit: 532 x 598 km, 97.7° (Epoch: 30 November)

Event Time Altitude Azimuth Distance (km) Brightness Sun altitude
Rises 23:46:22 0° 137° (SE) 2,699 4.5 -9.5°
Reaches altitude 10° 23:48:48 10° 122° (ESE) 1,802 3.5 -10.0°
Maximum altitude 23:51:53 23° 69° (ENE) 1,170 2.4 -10.5°
Drops below altitude 10° 23:54:58 10° 16° (NNE) 1,795 3.7 -11.1°
Sets 23:57:23 0° 2° (N) 2,687 4.7 -11.6°
